Torna al catalogo

STARLINK-11731

AttivoComunicazioniVLEO
NORAD 64371·PAYLOAD·🇺🇸 United States

Lanciato Jun 13, 2025 da Cape Canaveral Space Force Station

Loading…

Prossimi Passaggi (prossime 24 ore)

TLE

AggiornatoSource: CelesTrak SupGP

Epoca: Sep 14, 2026, 14:55 UTC

1 64371C 25127B   26257.62201389 -.00021828  00000+0 -16967-3 0  2572
2 64371  43.0009  26.0003 0001738 260.5003  90.1229 15.70830696    14

Traccia STARLINK-11731 in tempo reale con AllMySat

Download on the App Store